FENGYUN 1C DEB, 30543

Orbit data source: Space-Track

FENGYUN 1C DEB, 30543 is space debris in SSO originally from a launch on Mon, 10 May 1999 UTC launched from the Taiyaun Space Center, China (TSC). Fengyun 1C debris stems from the Chinese weather satellite Fengyun-1C, which was intentionally destroyed by a Chinese anti-satellite missile in 2007. This event dramatically increased the amount of space debris, with thousands of trackable fragments posing hazards to satellites and human spaceflight. The Fengyun 1C debris cloud has become a focal point in discussions about space sustainability and the need for international regulations to prevent the creation of new debris.

Loading next visibility...
Identifier
30543, 1999-025AKH
Orbit
SSO
Country
Flag of CNCN / PRC
Related business
Manufacturer
Unknown
Mission
Spacecraft
Bus & Motor
Unknown
Mass
Unknown
Launch date (UTC)
1999-05-10 (27 years ago)
Launch vehicle
Unknown
Launch site
Taiyaun Space Center, China (TSC)
Object type
Payload
Rocket body
Debris
Shape & HBR
Unknown shape, 0.1 m
Radar Cross Section
Medium (>0.1 m² and <1 m²)

Expand to show TLE details & history
Last TLE update: 10 hours ago

TLE from 10 hours ago
0 FENGYUN 1C DEB
1 30543U 99025AKH 26256.28767463  .00000074  00000-0  72470-4 0  9999
2 30543  98.8317 263.1008 0071656 346.5668  26.5145 14.03921009  3562
Epoch: 2026-09-13T06:54Z
TLE epoch observation values (Epoch: 2026-09-13T06:54:15.088Z)
Latitude
13.25394°
Longitude
165.16723°
Altitude
835.916 km
Speed
7.46 km/s
True Right ascension
17h 24m 03s
True Declination
13° 10' 42"
Sunlit
Object was in daylight at epoch
Visualization orbit readout
Latitude
Unknown
Longitude
Unknown
Altitude
Unknown
Speed
Unknown
Apparent Right ascension
Unknown
Apparent Declination
Unknown
Sunlit
N/A
Visualization observer readout
Local Sidereal Time
09:28:15
Azimuth
Unknown
Elevation
Unknown
Doppler factor
Unknown
Orbital elements
Apogee altitude
929.425 km
Perigee altitude
825.444 km
Semi-major axis
7,255.572 km
Eccentricity
0.00717
Inclination
98.8317°
RAAN
263.1008°
Arg. of periapsis
346.5668°
True anomaly
26.88402°
Mean anomaly
26.5145°
Eccentric anomaly
26.69897°
Mean motion
3.51185 °/min
Orbital period
102.51 mins
BSTAR
0.00007247
Loading maneuver chart data...
Computing Atmospheric mass density...

Documentation

Showing up to 5 results
|